Location: Bannatyne
(13.0833°N, 59.5333°W)
Time: 15:36:33
(UTC+00:00)

deb Explorer IX - Pass Details

Date: 31 January 2020
Orbit: 549 x 1099 km, 38.8° (Epoch: 23 February)

Event Time Altitude Azimuth Distance (km) Brightness Sun altitude
Rises 22:10:55 0° 269° (W) 3,160 ? -3.7°
Reaches altitude 10° 22:13:51 10° 287° (WNW) 2,340 ? -4.4°
Maximum altitude 22:17:53 20° 333° (NNW) 1,866 ? -5.3°
Drops below altitude 10° 22:22:21 10° 19° (NNE) 2,624 ? -6.4°
Sets 22:25:54 0° 35° (NE) 3,673 ? -7.2°
Enters shadow 22:25:56 - 35° (NE) 3,685 ? -7.2°
